AirNav   Air Wisconsin pilot careers
 
 1594 users online  

CL77 Bonny Doon Airport
Santa Cruz, California, USA

GOING TO SANTA CRUZ?


FAA INFORMATION EFFECTIVE 24 MAY 2018

Location

FAA Identifier: CL77
Lat/Long: 37-04-13.8130N / 122-07-38.8760W
37-04.230217N / 122-07.647933W
37.0705036 / -122.1274656
(estimated)
Elevation: 2020 ft. / 616 m (estimated)
Variation: 16E (1980)
From city: 8 miles NW of SANTA CRUZ, CA
Time zone: UTC -7 (UTC -8 during Standard Time)
Zip code: 95060

Airport Operations

Airport use: Private use. Permission required prior to landing
Activation date: 07/1986
Control tower: no
ARTCC: OAKLAND CENTER
FSS: OAKLAND FLIGHT SERVICE STATION
Attendance: CONTINUOUS
Wind indicator: yes
Segmented circle: yes

Airport Communications

WX ASOS at WVI (18 nm SE): 132.275 (831-724-8794)
WX ASOS at SJC (20 nm NE): PHONE 408-969-0838

Nearby radio navigation aids

VOR radial/distance  VOR name  Freq  Var
SJCr190/20.2SAN JOSE VOR/DME114.1016E
OSIr142/20.7WOODSIDE VOR/DME113.9017E
SFOr143/35.0SAN FRANCISCO VOR/DME115.8017E
SNSr297/35.1SALINAS VORTAC117.3017E
OAKr156/39.6OAKLAND VOR/DME116.8017E

Airport Services

Runway Information

Runway 12/30

Dimensions: 2200 x 50 ft. / 671 x 15 m
Surface: asphalt
RUNWAY 12  RUNWAY 30
Traffic pattern: leftleft

Airport Ownership and Management from official FAA records

Ownership: Privately-owned
Owner: BONNY DOON AIRPORT LLC
8647 EMPIRE GRADE
SANTA CRUZ, CA 95060
Phone 415-764-2721
C/O MARGARET LIP
Manager: PHILLIP TRISSELL
11530 EMPIRE GRADE
SANTA CRUZ, CA 95060
Phone 831-254-5111

Airport Operational Statistics

Aircraft based on the field: 2
Single engine airplanes: 2
    

Additional Remarks

TREES SURROUNDING ARPT; HIGH TRRN NORTH; USE RWY 30 FOR LANDING; RWY 12 FOR TKOF.

Instrument Procedures

There are no published instrument procedures at CL77.

Some nearby airports with instrument procedures:

KWVI - Watsonville Municipal Airport (18 nm SE)
KSJC - Norman Y Mineta San Jose International Airport (20 nm NE)
KNUQ - Moffett Federal Airfield (21 nm N)
KRHV - Reid-Hillview Airport of Santa Clara County (22 nm NE)
KPAO - Palo Alto Airport (23 nm N)
 
Loc | Ops | Rwys | IFR | FBO | Links
Com | Nav | Svcs | Stats | Notes

AirNav Hotels Sweepstakes
 
Area around CL77 (Bonny Doon Airport)
 
Road maps at: MapQuest Bing Google
 
Aerial photo
WARNING: Photo may not be current or correct
Aerial photo of CL77 (Bonny Doon Airport)
Do you have a better or more recent aerial photo of Bonny Doon Airport that you would like to share? If so, please send us your photo.

 
Sectional chart

 
Airport distance calculator
Flying to Bonny Doon Airport? Find the distance to fly.

From to CL77

Sunrise and sunset
Times for 18-Jun-2018
 Local
(UTC-7)
 Zulu
(UTC)
Morning civil twilight05:1812:18
Sunrise05:4912:49
Sunset20:3003:30
Evening civil twilight21:0104:01

Current date and time
Zulu (UTC)  18-Jun-2018 20:24:44
Local (UTC-7)  18-Jun-2018 13:24:44
 
METAR
KWVI 
18nm SE 
181953Z AUTO 21012KT 8SM CLR 18/12 A3007 RMK AO2 SLP182 T01830122
KSJC 
20nm NE 
181953Z 31010KT 10SM FEW046 SCT080 BKN110 24/13 A3002 RMK AO2 SLP166 T02390133
KRHV 
21nm NE 
181947Z 33010KT 10SM SCT080 25/11 A3001
KNUQ 
21nm N 
181956Z 35010KT 10SM CLR 22/14 A3004 RMK AO2 SLP174 T02170139
KPAO 
24nm N 
181947Z 34010KT 10SM FEW030 21/14 A3004
KE16 
25nm E 
181955Z AUTO 32011G14KT 10SM CLR 26/10 A3002 RMK AO2
KSQL 
27nm N 
181953Z 36007KT 10SM FEW200 20/14 A3004
KOAR 
30nm SE 
134.025 831-384-2967
No observation available
KHAF 
32nm NW 
181955Z AUTO 25008KT 9SM CLR 16/12 A3008 RMK AO2
KMRY 
32nm SE 
181954Z 23008KT 10SM CLR 19/12 A3008 RMK AO2 SLP196 T01890117
TAF
KSJC 
20nm NE 
181738Z 1818/1918 VRB03KT P6SM FEW008 FEW080 FM182000 29010KT P6SM SKC FM190500 31006KT P6SM FEW028 FM190900 VRB03KT P6SM BKN015 FM191530 VRB03KT P6SM FEW018
NOTAMs
Click for the latest NOTAMs
NOTAMs are issued by the DoD/FAA and will open in a separate window not controlled by AirNav.

 

 
 

Would you like to see your business listed on this page?

 If your business provides an interesting product or service to pilots, flight crews, aircraft, or users of the Bonny Doon Airport, you should consider listing it here.  To start the listing process, click on the button below
 
Add a business
 

Other Pages about Bonny Doon Airport

Update a link
 
Copyright © AirNav, LLC. All rights reserved. Privacy Policy  Contact